Date String (YYYY-MM-DD hh:mm:ss) UTC,Instrument flags,absolute air pressure of the measurement (hPa),sample flow rate (lpm),inlet stack bypass flow (lpm),air temperature of the measurement (°C),ambient temperature measured by the external sensor (°C),aerosol sample conditioner tube jacket temperature (°C),OPC LED temperature (°C),internal box temperature (°C),relative humidity of the measurement (%),span deviation,mass concentration of particles derived from Lorenz-Mie calculation of OPC scattering (μg/m³),mass concentration of particles derived from Lorenz-Mie calculation of OPC scattering (μg/m³),mass concentration of particles derived from Lorenz-Mie calculation of OPC scattering (μg/m³)
DateTimeUTC,F1_M11,P_M11,Q1_M11,Q2_M11,T1_M11,T2_M11,T3_M11,T4_M11,T5_M11,U1_M11,ZSPAN_M11,X0_M11,X2_M11,X1_M11
2024-04-02 08:00:00,SystemResetWarning,0828.3,5.00,000.00,019.1,018.4,000.0,027.7,020.9,26.7,0000.0,0003.68,0003.65,0003.58
2024-04-02 08:01:00,SystemResetWarning,0828.4,5.01,000.00,019.1,018.4,000.0,027.7,020.9,26.7,0000.0,0003.73,0003.65,0003.58
2024-04-02 08:02:00,SystemResetWarning,0828.4,5.01,000.00,019.1,018.4,000.0,027.7,020.9,26.8,0000.0,0003.68,0003.64,0003.57
2024-04-02 08:03:00,SystemResetWarning,0828.3,5.00,000.00,019.1,018.4,000.0,027.7,020.9,27.0,0000.0,0003.70,0003.63,0003.55
2024-04-02 08:04:00,SystemResetWarning,0828.3,4.99,000.00,019.1,018.4,000.0,027.7,020.9,27.0,0000.0,0003.73,0003.63,0003.55
2024-04-02 08:05:00,SystemResetWarning,0828.3,5.00,000.00,019.1,018.3,000.0,027.7,020.9,27.1,0000.0,0003.77,0003.65,0003.57
2024-04-02 08:06:00,SystemResetWarning,0828.4,5.01,000.00,019.1,018.3,000.0,027.7,020.8,27.3,0000.0,0003.81,0003.68,0003.61
2024-04-02 08:07:00,SystemResetWarning,0828.4,5.00,000.00,019.1,018.3,000.0,027.7,020.8,27.5,0000.0,0003.84,0003.69,0003.63
2024-04-02 08:08:00,SystemResetWarning,0828.3,5.00,000.00,019.1,018.2,000.0,027.7,020.8,27.8,0000.0,0003.88,0003.71,0003.64
2024-04-02 08:09:00,SystemResetWarning,0828.3,5.00,000.00,019.1,018.2,000.0,027.7,020.8,27.4,0000.0,0003.98,0003.73,0003.65
2024-04-02 08:10:00,SystemResetWarning,0828.3,5.00,000.00,019.0,018.2,000.0,027.7,020.8,27.2,0000.0,0005.41,0003.75,0003.66
2024-04-02 08:11:00,SystemResetWarning,0828.4,5.00,000.00,019.0,018.2,000.0,027.6,020.8,27.3,0000.0,0005.71,0003.76,0003.67
2024-04-02 08:12:00,SystemResetWarning,0828.3,5.00,000.00,019.0,018.2,000.0,027.6,020.8,27.4,0000.0,0005.78,0003.78,0003.68
2024-04-02 08:13:00,SystemResetWarning,0828.3,5.00,000.00,019.0,018.2,000.0,027.6,020.8,27.4,0000.0,0005.83,0003.80,0003.69
2024-04-02 08:14:00,SystemResetWarning,0828.3,4.99,000.00,019.0,018.2,000.0,027.6,020.8,27.3,0000.0,0005.84,0003.81,0003.71
2024-04-02 08:15:00,SystemResetWarning,0828.4,4.98,000.00,019.0,018.2,000.0,027.6,020.8,27.0,0000.0,0005.90,0003.83,0003.71
2024-04-02 08:16:00,SystemResetWarning,0828.4,5.00,000.00,019.0,018.1,000.0,027.6,020.7,26.7,0000.0,0005.91,0003.80,0003.67
2024-04-02 08:17:00,SystemResetWarning,0828.4,5.00,000.00,019.0,018.1,000.0,027.6,020.7,26.5,0000.0,0005.81,0003.74,0003.61
2024-04-02 08:18:00,SystemResetWarning,0828.4,5.01,000.00,019.0,018.1,000.0,027.6,020.7,26.6,0000.0,0005.80,0003.71,0003.57
2024-04-02 08:19:00,SystemResetWarning,0828.4,5.01,000.00,019.0,018.1,000.0,027.6,020.7,26.6,0000.0,0005.80,0003.68,0003.54
2024-04-02 08:20:00,SystemResetWarning,0828.4,5.00,000.00,019.0,018.1,000.0,027.6,020.7,26.5,0000.0,0005.75,0003.66,0003.52
2024-04-02 08:21:00,SystemResetWarning,0828.4,4.99,000.00,018.9,018.1,000.0,027.6,020.7,26.4,0000.0,0004.60,0003.62,0003.50
2024-04-02 08:22:00,SystemResetWarning,0828.4,4.99,000.00,018.9,018.1,000.0,027.6,020.7,26.4,0000.0,0004.03,0003.61,0003.48
2024-04-02 08:23:00,SystemResetWarning,0828.4,5.00,000.00,018.9,018.1,000.0,027.5,020.7,26.4,0000.0,0003.97,0003.58,0003.46
2024-04-02 08:24:00,SystemResetWarning,0828.4,5.00,000.00,018.9,018.0,000.0,027.5,020.6,26.5,0000.0,0003.96,0003.55,0003.44
2024-04-02 08:25:00,SystemResetWarning,0828.4,5.00,000.00,018.9,018.0,000.0,027.5,020.6,26.5,0000.0,0003.96,0003.55,0003.42
2024-04-02 08:26:00,SystemResetWarning,0828.4,5.01,000.00,018.9,018.0,000.0,027.5,020.6,26.4,0000.0,0003.93,0003.53,0003.41
2024-04-02 08:27:00,SystemResetWarning,0828.4,5.01,000.00,018.9,018.1,000.0,027.5,020.6,26.4,0000.0,0003.87,0003.52,0003.42
2024-04-02 08:28:00,SystemResetWarning,0828.4,5.00,000.00,018.9,018.1,000.0,027.5,020.6,26.2,0000.0,0005.08,0003.54,0003.43
2024-04-02 08:29:00,SystemResetWarning,0828.4,4.99,000.00,018.9,018.1,000.0,027.5,020.6,25.9,0000.0,0005.22,0003.53,0003.42
2024-04-02 08:30:00,SystemResetWarning,0828.4,4.99,000.00,018.9,018.0,000.0,027.5,020.6,26.0,0000.0,0005.24,0003.53,0003.42
2024-04-02 08:31:00,SystemResetWarning,0828.4,5.01,000.00,018.9,018.0,000.0,027.5,020.6,26.1,0000.0,0005.24,0003.54,0003.42
2024-04-02 08:32:00,SystemResetWarning,0828.4,5.01,000.00,018.8,018.0,000.0,027.5,020.6,25.9,0000.0,0005.21,0003.54,0003.43
2024-04-02 08:33:00,SystemResetWarning,0828.4,5.01,000.00,018.8,018.0,000.0,027.5,020.6,25.8,0000.0,0005.26,0003.55,0003.42
2024-04-02 08:34:00,SystemResetWarning,0828.4,5.00,000.00,018.8,018.0,000.0,027.4,020.5,25.9,0000.0,0005.25,0003.54,0003.42
2024-04-02 08:35:00,SystemResetWarning,0828.4,5.00,000.00,018.8,018.0,000.0,027.4,020.5,25.8,0000.0,0005.73,0003.53,0003.41
2024-04-02 08:36:00,SystemResetWarning,0828.4,5.00,000.00,018.8,017.9,000.0,027.4,020.5,25.8,0000.0,0005.70,0003.51,0003.41
2024-04-02 08:37:00,SystemResetWarning,0828.5,4.99,000.00,018.8,017.9,000.0,027.4,020.5,25.8,0000.0,0005.65,0003.49,0003.40
2024-04-02 08:38:00,SystemResetWarning,0828.6,5.00,000.00,018.8,017.9,000.0,027.4,020.5,25.7,0000.0,0005.65,0003.49,0003.41
2024-04-02 08:39:00,SystemResetWarning,0828.6,5.01,000.00,018.8,017.9,000.0,027.4,020.4,25.7,0000.0,0004.64,0003.50,0003.40
2024-04-02 08:40:00,SystemResetWarning,0828.6,5.00,000.00,018.7,017.8,000.0,027.4,020.4,25.5,0000.0,0004.58,0003.51,0003.40
2024-04-02 08:41:00,SystemResetWarning,0828.6,5.00,000.00,018.7,017.8,000.0,027.4,020.4,25.5,0000.0,0004.61,0003.53,0003.41
2024-04-02 08:42:00,SystemResetWarning,0828.6,5.00,000.00,018.7,017.8,000.0,027.4,020.4,25.5,0000.0,0004.61,0003.52,0003.41
2024-04-02 08:43:00,SystemResetWarning,0828.6,4.99,000.00,018.7,017.8,000.0,027.4,020.4,25.5,0000.0,0004.65,0003.53,0003.41
2024-04-02 08:44:00,SystemResetWarning,0828.6,4.99,000.00,018.7,017.8,000.0,027.3,020.4,25.6,0000.0,0004.59,0003.52,0003.42
2024-04-02 08:45:00,SystemResetWarning,0828.6,5.00,000.00,018.7,017.7,000.0,027.3,020.4,25.5,0000.0,0004.59,0003.53,0003.43
2024-04-02 08:46:00,SystemResetWarning,0828.6,5.00,000.00,018.7,017.8,000.0,027.3,020.3,25.5,0000.0,0004.12,0003.55,0003.44
2024-04-02 08:47:00,SystemResetWarning,0828.6,5.00,000.00,018.6,017.7,000.0,027.3,020.3,25.5,0000.0,0004.16,0003.56,0003.44
2024-04-02 08:48:00,SystemResetWarning,0828.7,5.00,000.00,018.6,017.7,000.0,027.3,020.3,25.5,0000.0,0004.20,0003.56,0003.44
2024-04-02 08:49:00,SystemResetWarning,0828.7,5.00,000.00,018.6,017.7,000.0,027.3,020.3,25.5,0000.0,0004.27,0003.58,0003.44
2024-04-02 08:50:00,SystemResetWarning,0828.7,5.00,000.00,018.6,017.7,000.0,027.3,020.3,25.7,0000.0,0004.23,0003.59,0003.46
2024-04-02 08:51:00,SystemResetWarning,0828.8,5.00,000.00,018.6,017.7,000.0,027.2,020.3,26.5,0000.0,0004.15,0003.60,0003.47
2024-04-02 08:52:00,SystemResetWarning,0828.8,4.98,000.00,018.6,017.7,000.0,027.2,020.3,26.0,0000.0,0004.06,0003.58,0003.47
2024-04-02 08:53:00,SystemResetWarning,0828.8,4.99,000.00,018.6,017.7,000.0,027.2,020.3,25.8,0000.0,0004.05,0003.58,0003.48
2024-04-02 08:54:00,SystemResetWarning,0828.8,5.00,000.00,018.6,017.8,000.0,027.2,020.3,25.7,0000.0,0004.13,0003.60,0003.48
2024-04-02 08:55:00,SystemResetWarning,0828.9,5.00,000.00,018.6,017.8,000.0,027.2,020.3,25.7,0000.0,0004.17,0003.61,0003.48
2024-04-02 08:56:00,SystemResetWarning,0829.0,5.01,000.00,018.6,017.8,000.0,027.2,020.3,25.7,0000.0,0004.25,0003.63,0003.49
2024-04-02 08:57:00,SystemResetWarning,0828.9,5.01,000.00,018.6,017.8,000.0,027.2,020.3,25.5,0000.0,0004.27,0003.64,0003.50
2024-04-02 08:58:00,SystemResetWarning,0829.0,5.00,000.00,018.6,017.8,000.0,027.2,020.3,25.5,0000.0,0004.28,0003.65,0003.52
2024-04-02 08:59:00,SystemResetWarning,0828.9,5.00,000.00,018.6,017.8,000.0,027.2,020.3,25.5,0000.0,0004.36,0003.68,0003.54
